Location: Artiguedieu
(43.5000°N, 0.5454°E)
Time: 21:07:58
(UTC+00:00)

Transit 2A - Pass Details

Date: 25 July 2021
Orbit: 594 x 964 km, 66.7° (Epoch: 28 September)

Event Time Altitude Azimuth Distance (km) Brightness Sun altitude
Rises 07:26:52 0° 197° (SSW) 2,817 8.8 28.1°
Reaches altitude 10° 07:29:06 10° 192° (SSW) 1,926 8.1 28.5°
Maximum altitude 07:33:16 52° 116° (ESE) 758 7.3 29.3°
Drops below altitude 10° 07:37:41 10° 40° (NE) 2,037 8.9 30.1°
Sets 07:40:05 0° 36° (NE) 2,998 9.5 30.5°
